DW6632 Weather Reports


time (UTC)temp
C
wind
direction
speed
KPH
gust
KPH
rain 1hr
cm
rain 24hr
cm
rain mn
cm
humidity
%
barometer
mb
20260507123204 18 39 8.0 22.5 0.05 0.05 0.05 77 1011.5
20260507121204 18 350 4.8 16.1 0.05 0.05 0.05 81 1011.6
20260507120704 18 11 4.8 12.9 0.05 0.05 0.05 81 1011.7
20260507120204 18 356 6.4 11.3 0.05 0.05 0.05 79 1011.8
20260507114205 18 10 4.8 9.7 0.00 0.00 0.00 72 1012.0
20260507113704 18 16 4.8 12.9 0.00 0.00 0.00 70 1012.0
20260507113204 18 51 4.8 19.3 0.00 0.00 0.00 70 1012.0
20260507111704 19 2 8.0 16.1 0.00 0.00 0.00 68 1012.4
20260507110704 20 93 3.2 4.8 0.00 0.00 0.00 64 1012.4
20260507110204 19 66 3.2 11.3 0.00 0.00 0.00 66 1012.4
20260507104704 18 324 3.2 12.9 0.00 0.00 0.00 66 1012.5
20260507104204 18 356 3.2 8.0 0.00 0.00 0.00 66 1012.5
20260507103704 18 53 4.8 8.0 0.00 0.00 0.00 66 1012.5
20260507103205 18 36 3.2 14.5 0.00 0.00 0.00 67 1012.5
20260507101704 18 17 3.2 11.3 0.00 0.00 0.00 68 1012.6
20260507101204 18 354 3.2 4.8 0.00 0.00 0.00 69 1012.6
20260507100704 18 320 4.8 16.1 0.00 0.00 0.00 69 1012.7
20260507100204 18 19 3.2 8.0 0.00 0.00 0.00 68 1012.8
20260507094704 18 43 3.2 8.0 0.00 0.00 0.00 69 1012.9
20260507094204 18 97 1.6 4.8 0.00 0.00 0.00 69 1012.9
20260507093704 18 123 1.6 4.8 0.00 0.00 0.00 69 1012.9
20260507093204 18 40 1.6 4.8 0.00 0.00 0.00 70 1012.9
20260507091704 17 32 3.2 8.0 0.00 0.00 0.00 71 1013.0
20260507091205 17 18 3.2 8.0 0.00 0.00 0.00 71 1013.1
20260507090705 17 19 4.8 8.0 0.00 0.00 0.00 70 1013.1
20260507090205 18 64 0.0 8.0 0.00 0.00 0.00 71 1013.1
20260507084704 17 312 3.2 8.0 0.00 0.00 0.00 72 1012.8
20260507084204 17 0 1.6 4.8 0.00 0.00 0.00 72 1012.9
20260507083705 17 27 4.8 11.3 0.00 0.00 0.00 73 1013.0
20260507083204 17 40 0.0 4.8 0.00 0.00 0.00 74 1012.9
20260507081704 16 17 3.2 4.8 0.00 0.00 0.00 74 1012.8
20260507081204 16 333 0.0 4.8 0.00 0.00 0.00 74 1012.8
20260507080704 16 11 3.2 8.0 0.00 0.00 0.00 74 1012.9
20260507080204 16 340 1.6 8.0 0.00 0.00 0.00 73 1013.0
20260507074704 16 238 1.6 3.2 0.00 0.00 0.00 75 1013.0
20260507073704 16 292 0.0 0.0 0.00 0.00 0.00 77 1013.1
20260507073204 15 291 0.0 4.8 0.00 0.00 0.00 78 1013.1
20260507071704 15 304 1.6 4.8 0.00 0.00 0.00 81 1012.9
20260507071204 15 304 1.6 4.8 0.00 0.00 0.00 82 1012.8
20260507070704 15 9 0.0 0.0 0.00 0.00 0.00 83 1012.8
20260507064205 15 29 0.0 0.0 0.00 0.00 0.00 86 1012.7
20260507063204 14 29 0.0 0.0 0.00 0.00 0.00 86 1012.7
20260507061704 14 29 0.0 0.0 0.00 0.00 0.00 86 1012.6
20260507061204 14 29 0.0 0.0 0.00 0.00 0.00 86 1012.5
20260507060204 13 29 0.0 0.0 0.00 0.00 0.00 87 1012.5
20260507054704 13 28 0.0 0.0 0.00 0.00 0.00 86 1012.3
20260507053704 13 28 0.0 0.0 0.00 0.00 0.00 86 1012.1
20260507053204 13 298 0.0 0.0 0.00 0.00 0.00 86 1012.1
20260507051704 13 298 0.0 0.0 0.00 0.00 0.00 86 1011.9
20260507051205 13 298 0.0 0.0 0.00 0.00 0.00 86 1011.9
20260507050704 13 299 0.0 0.0 0.00 0.00 0.00 86 1011.9
20260507050205 13 299 0.0 0.0 0.00 0.00 0.00 86 1012.0
20260507044705 13 266 0.0 0.0 0.00 0.00 0.00 86 1012.1
20260507044204 13 266 0.0 0.0 0.00 0.00 0.00 86 1012.0
20260507043704 13 266 0.0 0.0 0.00 0.00 0.00 86 1012.0
20260507043204 13 266 0.0 0.0 0.00 0.00 0.00 86 1012.0
20260507041704 13 167 0.0 0.0 0.00 0.00 0.00 87 1011.9
20260507041204 13 167 0.0 0.0 0.00 0.00 0.00 87 1011.8
20260507040204 13 167 0.0 4.8 0.00 0.00 0.00 88 1011.6
20260507034704 13 29 0.0 0.0 0.00 0.00 0.00 88 1011.7
20260507034204 13 26 0.0 0.0 0.00 0.00 0.00 88 1011.7
20260507033704 13 23 0.0 0.0 0.00 0.00 0.00 88 1011.7
20260507031704 13 22 0.0 0.0 0.00 0.00 0.00 87 1011.8
20260507030704 13 22 0.0 0.0 0.00 0.00 0.00 86 1011.8
20260507030204 13 22 0.0 0.0 0.00 0.00 0.00 86 1011.9
20260507024705 13 22 0.0 0.0 0.00 0.00 0.00 86 1012.0
20260507023704 13 22 0.0 0.0 0.00 0.00 0.00 85 1011.8
20260507023204 13 22 0.0 0.0 0.00 0.00 0.00 85 1011.9
20260507021704 13 22 0.0 0.0 0.00 0.00 0.00 85 1012.0
20260507021204 13 22 0.0 0.0 0.00 0.00 0.00 85 1012.1
20260507020704 13 22 0.0 0.0 0.00 0.00 0.00 85 1012.1
20260507014704 14 22 0.0 0.0 0.00 0.00 0.00 84 1012.2
20260507014204 14 22 0.0 0.0 0.00 0.00 0.00 84 1012.2
20260507013703 14 22 0.0 0.0 0.00 0.00 0.00 84 1012.1
20260507013204 14 22 0.0 0.0 0.00 0.00 0.00 83 1012.1
20260507011704 14 22 0.0 0.0 0.00 0.00 0.00 83 1012.2
20260507010204 15 290 0.0 4.8 0.00 0.00 0.00 81 1012.2
20260507004703 15 265 3.2 4.8 0.00 0.00 0.00 81 1012.3
20260507003704 15 287 1.6 4.8 0.00 0.00 0.00 81 1012.2
20260507001704 15 285 3.2 4.8 0.00 0.00 0.00 82 1012.5
20260507000703 15 290 1.6 4.8 0.00 0.00 0.00 82 1012.6
20260507000205 15 292 3.2 4.8 0.00 0.00 0.00 82 1012.6
20260506234205 15 253 1.6 4.8 0.00 0.00 0.00 80 1012.4
20260506233706 15 253 1.6 3.2 0.00 0.00 0.00 80 1012.4
20260506231705 15 252 3.2 4.8 0.00 0.00 0.00 79 1012.6
20260506231205 15 247 3.2 8.0 0.00 0.00 0.00 79 1012.6
20260506230706 15 286 3.2 4.8 0.00 0.00 0.00 79 1012.7
20260506230205 15 285 3.2 4.8 0.00 0.00 0.00 79 1012.8
20260506224705 15 301 1.6 4.8 0.00 0.00 0.00 79 1012.8
20260506223705 15 301 1.6 4.8 0.00 0.00 0.00 79 1012.8
20260506223205 16 299 0.0 4.8 0.00 0.00 0.00 79 1012.8
20260506221705 16 302 1.6 4.8 0.00 0.00 0.00 79 1012.8
20260506221205 16 303 3.2 4.8 0.00 0.00 0.00 79 1012.7
20260506220705 16 288 3.2 4.8 0.00 0.00 0.00 79 1012.7
20260506220205 16 253 4.8 9.7 0.00 0.00 0.00 79 1012.7
20260506214705 16 235 3.2 4.8 0.00 0.00 0.00 79 1012.8
20260506214205 16 242 4.8 9.7 0.00 0.00 0.00 79 1012.8
20260506213705 16 264 6.4 11.3 0.00 0.00 0.00 78 1012.8
20260506213205 16 249 4.8 9.7 0.00 0.00 0.00 78 1012.8
20260506211205 16 352 0.0 3.2 0.00 0.00 0.00 78 1012.6
20260506210705 16 355 3.2 4.8 0.00 0.00 0.00 77 1012.5
20260506210205 16 350 1.6 4.8 0.00 0.00 0.00 77 1012.4
20260506204205 16 348 0.0 0.0 0.00 0.00 0.00 77 1012.1
20260506203204 16 348 0.0 4.8 0.00 0.00 0.00 77 1011.9
20260506201705 16 332 1.6 4.8 0.00 0.00 0.00 75 1011.7
20260506201205 16 307 1.6 4.8 0.00 0.00 0.00 75 1011.7
20260506193705 17 5 1.6 4.8 0.00 0.00 0.00 73 1011.1
20260506193205 17 252 0.0 4.8 0.00 0.00 0.00 71 1011.1
20260506191705 17 87 1.6 3.2 0.00 0.00 0.00 71 1010.9
20260506191205 17 86 0.0 0.0 0.00 0.00 0.00 70 1010.9
20260506190705 17 86 0.0 4.8 0.00 0.00 0.00 70 1010.7
20260506184705 18 103 0.0 0.0 0.00 0.00 0.00 68 1010.6
20260506184205 18 103 0.0 0.0 0.00 0.00 0.00 68 1010.6
20260506183705 18 103 0.0 0.0 0.00 0.00 0.00 67 1010.6
20260506183205 18 104 0.0 0.0 0.00 0.00 0.00 67 1010.5
20260506181705 18 115 1.6 4.8 0.00 0.00 0.00 66 1010.5
20260506181205 19 85 3.2 4.8 0.00 0.00 0.00 64 1010.4
20260506180705 19 113 1.6 4.8 0.00 0.00 0.00 64 1010.3
20260506180205 19 131 0.0 4.8 0.00 0.00 0.00 64 1010.3
20260506174705 19 181 4.8 11.3 0.00 0.00 0.00 63 1010.3
20260506174205 19 164 3.2 8.0 0.00 0.00 0.00 63 1010.3
20260506173705 19 165 6.4 9.7 0.00 0.00 0.00 62 1010.3
20260506173205 19 171 6.4 11.3 0.00 0.00 0.00 62 1010.3
20260506171705 20 154 4.8 11.3 0.00 0.00 0.00 61 1010.3
20260506171205 20 168 4.8 14.5 0.00 0.00 0.00 60 1010.3
20260506170705 20 81 1.6 4.8 0.00 0.00 0.00 60 1010.2
20260506170205 20 118 0.0 8.0 0.00 0.00 0.00 60 1010.3
20260506164706 21 126 0.0 4.8 0.00 0.00 0.00 59 1010.2
20260506164205 21 133 1.6 4.8 0.00 0.00 0.00 59 1010.1
20260506163705 21 185 3.2 9.7 0.00 0.00 0.00 58 1010.2
20260506161205 21 73 3.2 9.7 0.00 0.00 0.00 57 1010.1
20260506160705 21 72 3.2 4.8 0.00 0.00 0.00 57 1010.1
20260506160205 21 54 3.2 12.9 0.00 0.00 0.00 58 1010.1
20260506154204 21 87 1.6 4.8 0.00 0.00 0.00 61 1010.1
20260506153705 21 44 3.2 8.0 0.00 0.00 0.00 58 1010.1
20260506151704 21 80 3.2 4.8 0.00 0.00 0.00 56 1010.1
20260506151205 21 124 0.0 11.3 0.00 0.00 0.00 57 1010.0
20260506150705 21 117 3.2 8.0 0.00 0.00 0.00 57 1010.0
20260506150206 21 114 4.8 16.1 0.00 0.00 0.00 58 1010.0
20260506144205 21 81 4.8 14.5 0.00 0.00 0.00 55 1010.2
20260506143705 21 79 4.8 12.9 0.00 0.00 0.00 55 1010.2
20260506143205 21 86 6.4 19.3 0.00 0.00 0.00 56 1010.2
20260506141705 21 93 4.8 12.9 0.00 0.00 0.00 57 1010.4
20260506141205 21 104 6.4 19.3 0.00 0.00 0.00 56 1010.4
20260506140705 22 106 4.8 19.3 0.00 0.00 0.00 55 1010.3
20260506140205 21 81 4.8 19.3 0.00 0.00 0.00 57 1010.2
20260506134705 21 176 4.8 12.9 0.00 0.00 0.00 55 1010.5
20260506134205 21 136 8.0 19.3 0.00 0.00 0.00 55 1010.5
20260506133705 21 91 8.0 14.5 0.00 0.00 0.00 55 1010.5
20260506133205 21 137 6.4 20.9 0.00 0.00 0.00 56 1010.5
20260506131705 21 98 4.8 11.3 0.00 0.00 0.00 54 1010.6
20260506131205 22 106 3.2 11.3 0.00 0.00 0.00 54 1010.5
20260506130704 22 107 6.4 14.5 0.00 0.00 0.00 53 1010.6
20260506130205 22 41 4.8 11.3 0.00 0.00 0.00 55 1010.6
20260506124205 21 117 4.8 11.3 0.00 0.00 0.00 55 1010.8
20260506123705 22 102 4.8 11.3 0.00 0.00 0.00 54 1010.7